Lid_Strength_Index
2 3 3 5 10 11 12 11 9 10 9 8 8 8 8 7 7 9 3 0 0 -0 -1 -1 -1 -1 -2 -2 -2 -2 -1 -2 -1 -1 -1 -1 -1 -1 -1 -1 -1 -1 -1 -2 -2 -2 -2 -1 -2
3 3 5 8 11 14 14 11 10 9 8 8 8 8 8 8 6 5 3 1 -0 -0 -1 -1 -1 -1 -1 -1 -2 -2 -2 -2 -1 -1 -1 -2 -1 -1 -1 -1 -1 -1 -1 -1 -2 -2 -2 -2 -1
3 5 6 10 13 14 14 11 10 9 9 8 8 7 7 7 6 4 2 0 -0 -0 -1 -1 -1 -1 -1 -1 -1 -1 -2 -2 -1 -2 -1 -1 -1 -1 -1 -1 -1 -1 -2 -2 -1 -0 -0 0 -0
5 7 9 11 12 11 11 9 10 9 9 9 8 9 8 6 5 4 2 1 0 -0 -1 -1 -1 -1 -2 -1 -1 -2 -2 -2 -2 -2 -1 -1 -1 -1 -1 -1 -2 -2 -1 -1 0 1 1 1 1
7 9 12 13 13 11 10 9 9 9 9 9 8 9 8 6 6 5 2 0 1 1 1 -0 -1 -1 -1 -1 -2 -2 -2 -2 -2 -2 -1 -1 -1 -2 -1 -2 -1 -1 -0 0 0 0 1 1 1
9 10 13 14 13 12 11 9 9 9 9 9 9 9 8 7 6 5 2 1 1 1 2 1 0 -0 -1 -1 -2 -2 -2 -2 -2 -2 -2 -2 -2 -1 -1 -1 -0 -0 0 0 0 1 1 2 2
10 11 13 13 13 12 10 10 10 9 9 9 8 8 7 7 6 4 2 2 1 2 2 1 0 -0 0 -1 -1 -2 -2 -2 -2 -1 -2 -2 -1 -0 -0 -0 0 0 0 1 1 2 2 2 3
9 10 12 13 13 12 10 10 9 9 9 8 8 9 8 7 6 4 3 3 2 2 1 1 0 0 0 -0 -0 -1 -1 -1 -1 -2 -2 -1 -1 -0 -0 0 0 1 1 2 2 2 3 4 4
9 12 14 13 13 11 10 10 9 9 9 9 8 8 8 8 6 5 4 4 4 3 2 2 1 1 1 0 0 0 -0 -1 -0 -1 -0 1 2 2 2 2 0 1 2 3 3 4 5 6 6
10 13 13 11 12 11 10 10 9 9 9 9 9 8 8 8 7 6 5 4 4 4 3 3 2 2 2 1 0 0 2 0 1 1 2 4 4 4 4 3 1 2 3 4 4 6 8 10 11
11 12 12 11 11 10 10 11 9 10 10 9 9 8 9 9 8 6 5 4 4 3 3 4 3 3 3 2 2 2 2 2 3 3 5 5 6 5 5 5 6 6 7 8 8 11 11 11 11
12 11 11 10 10 10 10 10 10 10 7 7 8 7 9 9 8 7 6 5 5 5 4 4 4 3 3 3 3 3 3 4 4 5 6 7 7 7 7 7 8 8 9 11 11 11 11 12 12
12 11 11 10 11 10 10 10 10 11 8 8 9 9 9 9 9 8 6 5 6 6 5 4 4 3 3 4 3 4 4 4 5 6 7 8 8 8 8 9 10 11 11 11 12 12 12 12 12
12 12 11 11 11 11 11 10 11 10 8 9 9 9 10 10 8 9 9 7 7 6 5 5 5 4 4 4 4 4 4 5 6 7 8 9 9 9 9 11 12 12 11 12 12 13 13 13 13
12 13 13 13 12 12 12 13 13 9 10 10 10 10 10 10 10 9 8 8 7 6 6 6 5 5 5 4 5 4 5 6 7 7 8 9 9 10 10 11 12 12 12 12 12 13 13 13 14
14 15 16 14 13 13 12 15 12 12 12 11 11 11 11 10 10 9 8 8 7 7 7 6 6 6 5 5 5 5 6 6 7 8 8 9 10 10 11 11 12 13 13 12 12 13 14 14 14
16 18 18 16 13 13 13 15 12 12 13 12 11 11 10 10 9 9 9 8 8 8 8 8 7 6 6 5 5 6 6 7 7 8 9 9 10 11 11 11 12 13 14 14 13 14 13 14 14
18 19 18 17 14 15 15 15 13 12 13 12 11 11 10 10 9 8 9 9 9 9 8 8 8 7 7 6 7 7 8 8 8 9 9 10 10 11 11 12 13 14 14 14 14 14 14 14 14
17 18 18 16 14 16 15 15 14 12 13 12 11 11 11 11 9 9 9 9 10 10 10 10 10 9 8 8 9 10 10 9 9 9 9 10 10 11 11 12 13 14 14 14 14 14 15 15 15
16 17 17 15 14 16 16 16 14 13 12 12 11 11 11 11 10 10 10 10 10 10 10 10 10 10 9 8 8 8 9 9 9 10 10 10 10 11 11 12 13 14 14 15 15 15 16 15 16
17 18 17 17 16 16 17 17 16 14 13 12 11 11 11 11 11 10 10 10 10 11 10 10 10 11 10 9 9 12 11 12 11 11 11 11 11 11 11 12 13 14 14 15 15 15 15 15 16
18 15 16 17 18 20 17 21 16 13 13 12 13 13 12 12 11 11 11 11 10 10 10 10 10 11 11 10 11 11 11 12 11 11 11 12 12 12 12 12 13 13 14 14 15 15 14 15 16
16 16 16 17 18 19 19 20 18 16 15 14 13 12 12 11 12 11 11 11 11 11 10 11 11 11 11 11 10 11 11 11 12 11 12 12 13 12 12 13 13 14 14 14 15 15 16 15 15
15 17 17 19 19 22 19 19 19 17 15 14 13 12 12 12 12 12 12 12 11 11 12 11 12 11 11 11 11 11 11 11 13 13 13 13 13 13 13 13 13 14 14 15 15 15 15 15 15
16 18 21 21 22 20 19 20 16 15 13 14 13 12 12 12 13 12 11 11 11 11 12 12 12 12 12 12 12 11 11 11 13 13 13 14 14 14 14 14 14 14 15 15 15 15 15 15 15
16 16 18 23 23 18 20 20 17 14 13 13 13 13 12 11 12 12 12 12 12 12 12 12 12 13 13 13 12 12 12 12 12 13 13 13 13 13 13 14 14 14 15 15 15 15 15 15 15
17 17 15 18 25 22 17 15 13 14 14 13 13 12 12 12 13 13 13 13 12 12 12 12 13 13 13 13 13 13 12 12 12 13 13 13 13 13 13 14 14 14 15 15 15 15 15 15 15
15 14 18 18 21 21 18 17 17 15 13 13 13 15 14 13 14 13 13 13 13 13 12 12 12 13 13 13 13 13 13 12 12 14 14 14 13 14 14 14 14 15 15 15 15 15 15 16 16
14 15 15 15 16 20 21 18 14 14 14 15 14 14 15 15 15 14 13 13 13 13 12 13 13 13 13 13 13 13 13 13 13 14 14 14 14 14 15 15 15 15 15 14 15 15 16 17 17
12 13 13 15 17 15 16 16 11 11 12 13 14 15 14 14 14 14 13 13 12 12 12 13 13 13 13 13 13 13 13 14 14 14 14 14 15 15 15 15 15 15 14 14 15 16 17 17 17